GW7200 Weather Reports


time (UTC)temp
F
wind
direction
speed
knots
gust
knots
rain 1hr
in
rain 24hr
in
rain mn
in
humidity
%
barometer
mb
20260906030241 79 55 0.0 0.0 0.00 0.00 0.00 82 1012.6
20260906025741 79 56 0.0 0.9 0.00 0.00 0.00 82 1012.6
20260906025235 79 53 0.0 1.7 0.00 0.00 0.00 83 1013.0
20260906024734 78 73 1.7 2.6 0.00 0.00 0.00 84 1013.1
20260906024233 78 59 1.7 2.6 0.00 0.00 0.00 86 1013.0
20260906023729 79 353 0.0 0.0 0.00 0.00 0.00 84 1012.8
20260906023225 79 352 0.0 0.0 0.00 0.00 0.00 84 1013.0
20260906022720 80 352 0.0 0.9 0.00 0.00 0.00 83 1012.9
20260906022215 80 353 0.0 0.0 0.00 0.00 0.00 82 1012.8
20260906021711 80 353 0.0 0.0 0.00 0.00 0.00 82 1012.6
20260906021210 80 352 0.0 0.0 0.00 0.00 0.00 82 1012.6
20260906020705 80 353 0.0 0.0 0.00 0.00 0.00 82 1012.4
20260906020200 80 353 0.9 0.9 0.00 0.00 0.00 82 1012.6
20260906015700 79 351 0.0 0.0 0.00 0.00 0.00 83 1012.6
20260906015158 78 352 0.0 0.0 0.00 0.00 0.00 85 1012.4
20260906014658 80 351 0.9 0.9 0.00 0.00 0.00 85 1012.6
20260906014155 80 9 0.0 0.0 0.00 0.00 0.00 82 1012.5
20260906013650 80 9 0.0 0.9 0.00 0.00 0.00 83 1012.4
20260906013145 80 10 0.9 0.9 0.00 0.00 0.00 83 1012.4
20260906012646 80 10 0.0 0.0 0.00 0.00 0.00 84 1012.2
20260906012145 80 10 0.9 1.7 0.00 0.00 0.00 85 1012.1
20260906011641 79 252 0.0 0.9 0.00 0.00 0.00 86 1012.1
20260906011136 80 243 0.0 0.9 0.00 0.00 0.00 84 1012.1
20260906010631 81 242 0.9 0.9 0.00 0.00 0.00 82 1012.1
20260906010128 81 242 0.0 0.0 0.00 0.00 0.00 81 1012.0
20260906005627 82 242 0.9 0.9 0.00 0.00 0.00 80 1012.0
20260906005127 83 330 0.9 0.9 0.00 0.00 0.00 78 1012.0
20260906004626 83 331 0.0 0.0 0.00 0.00 0.00 77 1011.6
20260906004121 83 330 0.0 0.0 0.00 0.00 0.00 77 1011.6
20260906003616 83 330 0.0 0.0 0.00 0.00 0.00 77 1011.7
20260906003113 83 330 0.0 0.0 0.00 0.00 0.00 76 1011.7
20260906002612 83 330 0.0 0.0 0.00 0.00 0.00 77 1011.7
20260906002107 84 329 0.9 0.9 0.00 0.00 0.00 74 1012.1
20260906001603 84 281 0.0 0.0 0.00 0.00 0.00 72 1012.2
20260906001102 85 279 0.0 0.0 0.00 0.00 0.00 72 1012.4
20260906000559 86 279 0.9 0.9 0.00 0.00 0.00 71 1012.4
20260906000054 86 283 0.0 0.9 0.00 0.00 0.00 69 1012.4
20260905235553 87 1 0.0 0.0 0.00 0.00 0.00 67 1012.6
20260905235048 87 1 0.0 0.0 0.00 0.00 0.00 63 1012.3
20260905234543 88 1 0.0 0.9 0.00 0.00 0.00 64 1012.8
20260905234039 88 1 0.0 0.0 0.00 0.00 0.00 59 1012.6
20260905233538 88 1 0.9 0.9 0.00 0.00 0.00 59 1012.6
20260905233038 88 0 0.9 0.9 0.00 0.00 0.00 59 1012.5
20260905232534 88 0 0.9 0.9 0.00 0.00 0.00 59 1012.6
20260905232029 88 0 0.0 0.0 0.00 0.00 0.00 60 1012.8
20260905231524 89 359 0.0 0.0 0.00 0.00 0.00 61 1012.9
20260905231021 89 359 0.0 0.9 0.00 0.00 0.00 58 1012.9
20260905230520 89 359 0.0 0.9 0.00 0.00 0.00 56 1012.6
20260905230018 90 359 0.9 0.9 0.00 0.00 0.00 55 1012.4
20260905225513 90 0 0.9 0.9 0.00 0.00 0.00 56 1012.5
20260905225009 90 358 0.9 0.9 0.00 0.00 0.00 55 1012.2
20260905224503 90 357 0.9 0.9 0.00 0.00 0.00 55 1012.3
20260905224002 91 20 0.0 0.9 0.00 0.00 0.00 55 1012.4
20260905223500 91 19 0.0 0.9 0.00 0.00 0.00 54 1012.5
20260905222955 92 15 0.9 0.9 0.00 0.00 0.00 54 1012.6
20260905222455 92 14 0.0 0.0 0.00 0.00 0.00 53 1012.5
20260905221951 93 10 0.9 2.6 0.00 0.00 0.00 52 1012.6
20260905221447 93 6 0.9 0.9 0.00 0.00 0.00 52 1012.3
20260905220943 93 6 1.7 1.7 0.00 0.00 0.00 52 1012.4
20260905220439 94 324 0.0 0.9 0.00 0.00 0.00 51 1012.5
20260905215938 93 323 0.0 0.9 0.00 0.00 0.00 51 1012.3
20260905215434 93 34 2.6 5.2 0.00 0.00 0.00 49 1012.4
20260905214930 94 346 2.6 2.6 0.00 0.00 0.00 49 1012.6
20260905214426 94 20 2.6 2.6 0.00 0.00 0.00 48 1012.5
20260905213926 94 329 0.9 0.9 0.00 0.00 0.00 48 1012.2
20260905213422 95 303 0.9 0.9 0.00 0.00 0.00 48 1012.4
20260905212917 95 333 0.9 1.7 0.00 0.00 0.00 49 1012.3
20260905212412 96 5 0.9 0.9 0.00 0.00 0.00 46 1012.3
20260905211911 95 306 0.9 0.9 0.00 0.00 0.00 46 1012.1
20260905211407 95 5 0.0 0.9 0.00 0.00 0.00 48 1012.6
20260905210903 95 342 0.9 1.7 0.00 0.00 0.00 50 1012.5
20260905210403 94 244 0.0 1.7 0.00 0.00 0.00 46 1012.3
20260905205902 94 357 0.0 2.6 0.00 0.00 0.00 49 1012.6
20260905205357 95 20 3.5 3.5 0.00 0.00 0.00 46 1012.5
20260905204855 95 356 1.7 2.6 0.00 0.00 0.00 47 1012.4
20260905204352 95 15 0.9 1.7 0.00 0.00 0.00 48 1012.4
20260905203850 95 13 0.9 2.6 0.00 0.00 0.00 49 1012.5
20260905203347 95 320 0.9 1.7 0.00 0.00 0.00 47 1012.8
20260905202843 96 263 7.0 7.8 0.00 0.00 0.00 47 1012.5
20260905202343 96 287 1.7 1.7 0.00 0.00 0.00 47 1012.6
20260905201839 95 359 0.0 1.7 0.00 0.00 0.00 46 1012.9
20260905201334 95 339 2.6 2.6 0.00 0.00 0.00 47 1013.0
20260905200833 95 354 1.7 3.5 0.00 0.00 0.00 47 1013.0
20260905200330 95 1 0.9 2.6 0.00 0.00 0.00 46 1013.1
20260905195827 95 339 0.9 1.7 0.00 0.00 0.00 44 1013.2
20260905195323 96 12 1.7 1.7 0.00 0.00 0.00 45 1013.2
20260905194819 96 107 0.9 1.7 0.00 0.00 0.00 45 1013.4
20260905194318 95 273 0.9 2.6 0.00 0.00 0.00 44 1013.2
20260905193818 94 150 0.9 1.7 0.00 0.00 0.00 45 1013.4
20260905193313 94 108 0.9 2.6 0.00 0.00 0.00 44 1013.5
20260905192808 94 288 2.6 3.5 0.00 0.00 0.00 44 1013.5
20260905192306 96 218 4.3 5.2 0.00 0.00 0.00 43 1013.7
20260905191803 95 183 1.7 3.5 0.00 0.00 0.00 44 1013.8
20260905191302 94 21 0.0 0.9 0.00 0.00 0.00 48 1013.5
20260905190801 95 235 3.5 6.1 0.00 0.00 0.00 45 1013.6
20260905190300 94 275 1.7 1.7 0.00 0.00 0.00 45 1013.8
20260905185759 94 40 1.7 2.6 0.00 0.00 0.00 46 1013.9
20260905185254 95 250 3.5 3.5 0.00 0.00 0.00 44 1013.9
20260905184748 94 278 1.7 5.2 0.00 0.00 0.00 44 1014.0
20260905184248 93 242 5.2 6.1 0.00 0.00 0.00 45 1014.1
20260905183747 92 103 1.7 1.7 0.00 0.00 0.00 45 1014.2
20260905183243 93 220 5.2 6.1 0.00 0.00 0.00 46 1014.3
20260905182742 93 143 0.9 1.7 0.00 0.00 0.00 46 1014.4
20260905182242 92 105 0.9 3.5 0.00 0.00 0.00 47 1014.3
20260905181737 91 131 3.5 3.5 0.00 0.00 0.00 48 1014.4
20260905181236 91 268 2.6 3.5 0.00 0.00 0.00 49 1014.6
20260905180731 91 136 3.5 3.5 0.00 0.00 0.00 49 1014.5
20260905180227 90 247 3.5 5.2 0.00 0.00 0.00 48 1014.6
20260905175726 90 224 5.2 6.1 0.00 0.00 0.00 49 1014.6
20260905175221 90 181 4.3 5.2 0.00 0.00 0.00 48 1014.7
20260905174716 90 218 0.9 5.2 0.00 0.00 0.00 50 1014.7
20260905174212 89 145 0.9 7.0 0.00 0.00 0.00 51 1014.7
20260905173708 90 236 3.5 6.1 0.00 0.00 0.00 51 1014.7
20260905173204 89 118 1.7 2.6 0.00 0.00 0.00 51 1014.8
20260905172703 89 210 1.7 5.2 0.00 0.00 0.00 51 1014.8
20260905172203 90 248 5.2 6.1 0.00 0.00 0.00 50 1014.8
20260905171659 89 126 1.7 3.5 0.00 0.00 0.00 50 1015.0
20260905171155 90 174 1.7 5.2 0.00 0.00 0.00 49 1014.9
20260905170652 88 113 3.5 3.5 0.00 0.00 0.00 51 1015.0
20260905170146 88 196 2.6 6.1 0.00 0.00 0.00 51 1014.8
20260905165646 89 191 6.1 6.1 0.00 0.00 0.00 51 1015.3
20260905165141 88 112 0.0 2.6 0.00 0.00 0.00 53 1015.1
20260905164636 88 100 3.5 5.2 0.00 0.00 0.00 53 1015.3
20260905164135 87 149 0.9 2.6 0.00 0.00 0.00 54 1015.4
20260905163632 86 159 1.7 3.5 0.00 0.00 0.00 57 1015.1
20260905163128 86 201 3.5 6.1 0.00 0.00 0.00 57 1015.0
20260905162624 86 205 2.6 6.1 0.00 0.00 0.00 56 1015.2
20260905162123 86 192 5.2 7.0 0.00 0.00 0.00 58 1015.2
20260905161623 85 165 4.3 7.8 0.00 0.00 0.00 59 1015.2
20260905161121 85 190 4.3 5.2 0.00 0.00 0.00 57 1015.2
20260905160620 85 233 1.7 6.1 0.00 0.00 0.00 61 1015.3
20260905160115 85 169 1.7 6.1 0.00 0.00 0.00 59 1015.4
20260905155609 86 205 3.5 7.0 0.00 0.00 0.00 59 1015.5
20260905155108 84 194 5.2 7.0 0.00 0.00 0.00 60 1015.6
20260905154608 85 144 2.6 5.2 0.00 0.00 0.00 60 1015.8
20260905154104 84 154 3.5 5.2 0.00 0.00 0.00 61 1015.7
20260905153559 84 180 5.2 6.1 0.00 0.00 0.00 60 1015.8
20260905153054 84 104 4.3 6.1 0.00 0.00 0.00 59 1015.8
20260905152549 84 77 1.7 3.5 0.00 0.00 0.00 60 1015.8
20260905152044 83 63 4.3 6.1 0.00 0.00 0.00 61 1015.9
20260905151539 83 94 1.7 6.1 0.00 0.00 0.00 61 1016.0
20260905151034 82 113 1.7 2.6 0.00 0.00 0.00 62 1015.8
20260905150529 81 42 3.5 5.2 0.00 0.00 0.00 65 1016.0
20260905150028 81 158 1.7 1.7 0.00 0.00 0.00 65 1016.0
20260905145526 81 65 1.7 5.2 0.00 0.00 0.00 63 1016.0
20260905145026 81 66 2.6 7.8 0.00 0.00 0.00 62 1016.0
20260905144521 83 134 5.2 7.0 0.00 0.00 0.00 61 1016.1
20260905144020 83 196 1.7 2.6 0.00 0.00 0.00 62 1016.1
20260905143520 82 84 3.5 7.0 0.00 0.00 0.00 62 1016.0
20260905143015 81 93 2.6 7.0 0.00 0.00 0.00 66 1016.3
20260905142514 81 102 3.5 6.1 0.00 0.00 0.00 67 1016.2
20260905142009 80 87 1.7 3.5 0.00 0.00 0.00 69 1015.9
20260905141509 80 68 4.3 6.1 0.00 0.00 0.00 70 1016.3
20260905141006 79 51 3.5 7.0 0.00 0.00 0.00 71 1016.4
20260905140500 78 50 6.1 7.0 0.00 0.00 0.00 72 1016.1
20260905135959 78 44 5.2 12.2 0.00 0.00 0.00 73 1016.3
20260905135455 77 45 9.6 11.3 0.00 0.00 0.00 73 1016.3
20260905134950 77 58 4.3 7.8 0.00 0.00 0.00 75 1016.4
20260905134449 76 307 2.6 7.0 0.00 0.00 0.00 77 1016.3
20260905133949 75 54 2.6 7.0 0.00 0.00 0.00 78 1016.3
20260905133444 74 15 2.6 5.2 0.00 0.00 0.00 79 1016.2
20260905132943 74 65 7.8 9.6 0.00 0.00 0.00 80 1016.5
20260905132439 73 50 3.5 5.2 0.00 0.00 0.00 80 1016.5
20260905131933 73 10 4.3 7.0 0.00 0.00 0.00 79 1016.5
20260905131429 74 64 5.2 7.0 0.00 0.00 0.00 78 1016.4
20260905130924 74 59 6.1 7.0 0.00 0.00 0.00 77 1016.7
20260905130423 74 42 5.2 9.6 0.00 0.00 0.00 76 1016.6
20260905125923 74 64 5.2 8.7 0.00 0.00 0.00 75 1016.4
20260905125418 75 43 3.5 12.2 0.00 0.00 0.00 76 1016.6
20260905124914 74 36 4.3 12.2 0.00 0.00 0.00 77 1016.7
20260905124410 74 7 3.5 5.2 0.00 0.00 0.00 79 1016.8
20260905123910 75 2 2.6 2.6 0.00 0.00 0.00 77 1016.2
20260905123407 75 25 2.6 3.5 0.00 0.00 0.00 77 1016.0
20260905122902 75 13 1.7 1.7 0.00 0.00 0.00 77 1015.7
20260905122401 75 344 3.5 5.2 0.00 0.00 0.00 77 1015.8
20260905121857 75 339 6.1 7.8 0.00 0.00 0.00 77 1015.8
20260905121353 75 12 2.6 6.1 0.00 0.00 0.00 77 1016.0
20260905120852 75 54 3.5 3.5 0.00 0.00 0.00 78 1015.9
20260905120346 75 40 4.3 5.2 0.00 0.00 0.00 77 1015.9
20260905115841 75 45 5.2 7.0 0.00 0.00 0.00 77 1015.7
20260905115340 75 20 0.9 2.6 0.00 0.00 0.00 79 1015.9
20260905114835 76 29 1.7 6.1 0.00 0.00 0.00 78 1015.8
20260905114334 76 354 0.9 1.7 0.00 0.00 0.00 78 1015.7
20260905113834 76 37 1.7 2.6 0.00 0.00 0.00 80 1015.7
20260905113329 76 355 3.5 6.1 0.00 0.00 0.00 80 1015.5
20260905112825 76 8 2.6 3.5 0.00 0.00 0.00 83 1015.6
20260905112319 76 352 3.5 6.1 0.00 0.00 0.00 83 1015.3
20260905111815 75 0 3.5 3.5 0.00 0.00 0.00 88 1015.5
20260905111315 74 18 0.9 2.6 0.00 0.00 0.00 92 1015.4
20260905110814 75 6 1.7 2.6 0.00 0.00 0.00 90 1015.4
20260905110308 75 54 0.9 1.7 0.00 0.00 0.00 91 1014.9
20260905105804 74 53 0.0 1.7 0.00 0.00 0.00 91 1014.6
20260905105306 74 13 0.0 0.0 0.00 0.00 0.00 91 1014.6
20260905104757 74 277 0.0 0.0 0.00 0.00 0.00 92 1014.6
20260905104254 74 275 0.0 0.9 0.00 0.00 0.00 92 1014.5
20260905103753 74 10 0.0 0.0 0.00 0.00 0.00 92 1014.6
20260905103249 74 9 0.0 0.0 0.00 0.00 0.00 92 1014.6
20260905102744 74 11 0.9 0.9 0.00 0.00 0.00 92 1014.8
20260905102241 74 11 0.0 0.0 0.00 0.00 0.00 91 1014.6
20260905101740 75 12 1.7 1.7 0.00 0.00 0.00 90 1014.6
20260905101238 75 7 0.0 0.0 0.00 0.00 0.00 91 1014.4
20260905100734 75 8 0.9 0.9 0.00 0.00 0.00 91 1014.3
20260905100230 75 7 0.0 0.0 0.00 0.00 0.00 91 1014.6
20260905095729 76 8 0.9 1.7 0.00 0.00 0.00 89 1014.4
20260905095229 76 224 0.0 0.0 0.00 0.00 0.00 88 1014.1
20260905094724 76 224 0.0 0.0 0.00 0.00 0.00 88 1014.3
20260905094219 76 224 0.9 0.0 0.00 0.00 0.00 88 1014.2
20260905093718 76 224 0.0 0.0 0.00 0.00 0.00 89 1013.9
20260905093215 76 224 0.0 0.0 0.00 0.00 0.00 88 1014.0
20260905092710 76 224 0.0 0.0 0.00 0.00 0.00 87 1014.0
20260905092205 77 224 0.0 0.0 0.00 0.00 0.00 86 1013.8
20260905091705 77 224 0.0 0.0 0.00 0.00 0.00 87 1013.8
20260905091200 77 224 0.0 0.9 0.00 0.00 0.00 86 1014.1
20260905090659 77 224 0.0 0.0 0.00 0.00 0.00 87 1013.8
20260905090155 77 224 0.0 0.0 0.00 0.00 0.00 86 1013.9
20260905085653 77 224 0.0 0.0 0.00 0.00 0.00 86 1014.0
20260905085149 76 224 0.0 0.0 0.00 0.00 0.00 87 1014.0
20260905084649 76 224 0.0 0.0 0.00 0.00 0.00 88 1014.0
20260905084143 76 224 0.0 0.0 0.00 0.00 0.00 88 1014.1
20260905083638 76 224 0.0 0.0 0.00 0.00 0.00 88 1014.0
20260905083134 76 224 0.0 0.9 0.00 0.00 0.00 88 1013.9
20260905082630 76 224 0.0 0.0 0.00 0.00 0.00 89 1014.0
20260905082126 76 224 1.7 1.7 0.00 0.00 0.00 88 1014.1
20260905081625 76 224 0.9 0.9 0.00 0.00 0.00 88 1014.1
20260905081126 76 224 0.0 0.0 0.00 0.00 0.00 88 1013.9
20260905080621 76 224 0.0 0.0 0.00 0.00 0.00 88 1014.0
20260905080115 76 224 0.0 0.0 0.00 0.00 0.00 89 1014.0
20260905075614 76 224 0.0 0.0 0.00 0.00 0.00 88 1014.0
20260905075114 76 224 0.0 0.0 0.00 0.00 0.00 88 1014.1
20260905074613 76 224 0.0 0.0 0.00 0.00 0.00 88 1014.0
20260905074109 76 224 0.0 0.9 0.00 0.00 0.00 88 1014.1
20260905073604 76 224 0.9 0.9 0.00 0.00 0.00 88 1014.2
20260905073100 76 224 0.9 1.7 0.00 0.00 0.00 88 1014.2
20260905072559 76 225 0.0 0.0 0.00 0.00 0.00 88 1014.3
20260905072055 76 225 0.0 0.9 0.00 0.00 0.00 88 1014.3
20260905071552 76 225 0.0 0.9 0.00 0.00 0.00 89 1014.4
20260905071051 76 226 0.0 0.0 0.00 0.00 0.00 89 1014.5
20260905070547 76 226 0.9 0.9 0.00 0.00 0.00 89 1014.6
20260905070043 76 225 1.7 1.7 0.00 0.00 0.00 89 1014.3
20260905065540 77 226 1.7 2.6 0.00 0.00 0.00 88 1014.4
20260905065036 77 227 1.7 1.7 0.00 0.00 0.00 87 1014.6
20260905064536 77 228 0.0 0.0 0.00 0.00 0.00 87 1014.7
20260905064031 77 228 0.0 0.0 0.00 0.00 0.00 87 1014.8
20260905063530 77 228 0.0 0.0 0.00 0.00 0.00 88 1014.7
20260905063027 77 228 0.0 0.9 0.00 0.00 0.00 88 1014.9
20260905062526 77 228 0.0 0.9 0.00 0.00 0.00 88 1014.6
20260905062027 77 229 0.9 0.9 0.00 0.00 0.00 88 1014.8
20260905061522 77 230 0.9 0.9 0.00 0.00 0.00 88 1014.9
20260905061021 77 230 0.9 0.9 0.00 0.00 0.00 88 1015.2
20260905060517 77 230 0.0 0.0 0.00 0.00 0.00 89 1014.9
20260905060013 77 230 0.0 0.0 0.00 0.00 0.00 89 1015.0
20260905055512 77 230 0.0 0.9 0.00 0.00 0.00 89 1015.0
20260905055012 77 230 0.9 0.9 0.00 0.00 0.00 88 1015.0
20260905054508 77 230 0.0 0.0 0.00 0.00 0.00 88 1015.1
20260905054003 77 230 0.0 0.0 0.00 0.00 0.00 88 1015.2
20260905053457 77 230 0.0 0.0 0.00 0.00 0.00 89 1015.0
20260905052953 77 230 0.0 0.0 0.00 0.00 0.00 88 1015.3
20260905052452 77 230 0.0 0.0 0.00 0.00 0.00 89 1015.1
20260905051952 77 230 0.0 0.0 0.00 0.00 0.00 89 1015.4
20260905051447 77 230 0.0 0.0 0.00 0.00 0.00 89 1015.4
20260905050945 78 230 0.0 0.9 0.00 0.00 0.00 88 1015.1
20260905050440 78 230 0.0 0.0 0.00 0.00 0.00 88 1015.2
20260905045936 78 230 0.0 0.0 0.00 0.00 0.00 88 1015.3
20260905045431 78 230 0.0 0.0 0.00 0.00 0.00 88 1015.2
20260905044927 77 230 0.9 0.9 0.00 0.00 0.00 88 1015.6
20260905044421 77 229 1.7 1.7 0.00 0.00 0.00 88 1015.2
20260905043921 78 217 2.6 2.6 0.00 0.00 0.00 87 1015.2
20260905043420 78 0 0.0 0.0 0.00 0.00 0.00 87 1015.4
20260905042915 78 0 0.0 0.0 0.00 0.00 0.00 88 1015.7
20260905042410 78 0 0.0 0.0 0.00 0.00 0.00 89 1015.5
20260905041905 78 0 0.0 0.0 0.00 0.00 0.00 88 1015.2
20260905041401 78 0 0.0 0.0 0.00 0.00 0.00 87 1015.1
20260905040855 78 0 0.0 0.0 0.00 0.00 0.00 87 1015.3
20260905040354 79 0 0.0 0.0 0.00 0.00 0.00 85 1015.3
20260905035854 80 0 0.0 0.0 0.00 0.00 0.00 84 1015.3
20260905035349 80 17 0.0 0.0 0.00 0.00 0.00 84 1015.4
20260905034846 80 17 0.0 0.9 0.00 0.00 0.00 84 1015.2
20260905034341 80 18 0.0 0.9 0.00 0.00 0.00 83 1015.4
20260905033840 80 18 0.0 0.0 0.00 0.00 0.00 83 1015.4
20260905033336 80 18 0.0 0.0 0.00 0.00 0.00 83 1015.4
20260905032834 80 18 0.0 0.0 0.00 0.00 0.00 83 1015.3
20260905032330 81 18 0.0 0.0 0.00 0.00 0.00 81 1015.4
20260905031825 81 18 0.0 0.0 0.00 0.00 0.00 81 1015.5
20260905031321 80 18 0.0 0.0 0.00 0.00 0.00 82 1015.6
20260905030816 81 18 0.9 0.9 0.00 0.00 0.00 81 1015.5
20260905030312 82 18 0.0 0.0 0.00 0.00 0.00 80 1015.5